Weather in Zavodovka

Ukraine / Kherson District     47°02′46″N   33°48′09″E
temp.,
°C
wind,
m/s
gust,
m/s
humid.,
%
clouds,
%
prec.,
mm/h
press.,
hPa
HPBL,
m
13 june, sun
sun1300:00+22wnw456588 0.0 1011224
03:00+21wsw346499 0.0 1011242
06:00+21sw446997 0.0 1010258
09:00+22ssw666633 0.8 1010458
12:00+24ssw57556 0.0 10101212
15:00+25ssw87450 0.0 10091875
18:00+25s77472 0.0 10081613
21:00+22sw68605 0.0 1009709
14 june, mon
mon1400:00+20ssw566953 0.0 1009456
03:00+19s5677100 0.0 1009384
06:00+19sse568193 0.5 1009337
09:00+21sse676716 1.0 1009917
12:00+25se785140 0.2 10091978
15:00+25se9951100 0.2 10092131
18:00+22s676648 0.2 1010727
21:00+21ese56695 0.2 1010424
15 june, tue
tue1500:00+21e346728 0.0 1011267
03:00+20ene447161 0.0 1010226
06:00+20ne6976100 0.5 1010345
09:00+23ne81069100 1.2 1010564
12:00+25ene8953100 1.5 10091971
15:00+22ese81069100 1.8 1009810
18:00+22e91271100 0.1 1008704
21:00+20e4679100 3.1 1008293
16 june, wed
wed1600:00+19se2281100 4.8 1008134
03:00+19s3385100 7.4 1008186
06:00+19s3483100 0.6 1008363
09:00+20s447599 1.6 1009520
12:00+21sse3359100 0.4 10101125
15:00+23nw215329 0.4 1010859
18:00+23se1256100 0.1 1010449
21:00+22wsw1160100 0.2 1011462
17 june, thu
thu1700:00+21ene336679 0.0 1011422
03:00+19ene3474100 0.1 1011253
06:00+18e458188 0.0 1013296
09:00+21ene5573100 0.1 1013617
12:00+23ene5560100 0.1 10141336
15:00+24ene455453 1.0 10141598
18:00+23se5562100 1.3 1014521
21:00+22sw2264100 1.3 1014354